| time (UTC) | temp C | wind direction | speed KPH | gust KPH | rain 1hr cm | rain 24hr cm | rain mn cm | humidity % | barometer mb |
| 20260504081555 | 20 | 74 | 0.0 | 0.0 | 0.00 | 0.00 | 0.00 | 78 | 1016.5 |
| 20260504081045 | 20 | 91 | 0.0 | 0.0 | 0.00 | 0.00 | 0.00 | 78 | 1016.6 |
| 20260504080539 | 20 | 91 | 0.0 | 0.0 | 0.00 | 0.00 | 0.00 | 78 | 1016.6 |
| 20260504080129 | 20 | 86 | 0.0 | 0.0 | 0.00 | 0.00 | 0.00 | 78 | 1016.6 |
| 20260504070402 | 21 | 98 | 0.0 | 0.0 | 0.00 | 0.03 | 0.00 | 76 | 1017.4 |
| 20260504050559 | 21 | 87 | 0.0 | 0.0 | 0.00 | 0.18 | 0.00 | 77 | 1017.9 |
| 20260504045833 | 21 | 77 | 0.0 | 0.0 | 0.00 | 0.18 | 0.00 | 77 | 1017.7 |
| 20260504045552 | 21 | 98 | 0.0 | 0.0 | 0.00 | 0.18 | 0.00 | 77 | 1017.8 |
| 20260504044826 | 21 | 98 | 0.0 | 0.0 | 0.00 | 0.18 | 0.00 | 76 | 1017.8 |
| 20260504044320 | 21 | 79 | 0.0 | 0.0 | 0.00 | 0.18 | 0.00 | 76 | 1017.9 |
| 20260504043821 | 22 | 84 | 0.0 | 0.0 | 0.00 | 0.18 | 0.00 | 76 | 1017.9 |
| 20260504043551 | 22 | 81 | 0.0 | 0.0 | 0.00 | 0.18 | 0.00 | 76 | 1017.9 |
| 20260504043049 | 22 | 88 | 0.0 | 0.0 | 0.00 | 0.18 | 0.00 | 75 | 1017.8 |
| 20260504042547 | 22 | 79 | 0.0 | 0.0 | 0.00 | 0.18 | 0.00 | 75 | 1017.9 |
| 20260504041820 | 22 | 105 | 0.0 | 0.0 | 0.00 | 0.18 | 0.00 | 75 | 1018.0 |
| 20260504041317 | 22 | 79 | 0.0 | 0.0 | 0.00 | 0.18 | 0.00 | 75 | 1018.1 |
| 20260504040817 | 22 | 101 | 0.0 | 0.0 | 0.00 | 0.18 | 0.00 | 75 | 1018.2 |
| 20260504040318 | 22 | 141 | 0.0 | 0.0 | 0.00 | 0.18 | 0.00 | 75 | 1018.2 |
| 20260504035815 | 22 | 82 | 0.0 | 0.0 | 0.00 | 0.18 | 0.18 | 74 | 1018.3 |
| 20260504035314 | 22 | 93 | 0.0 | 0.0 | 0.00 | 0.18 | 0.18 | 74 | 1018.5 |
| 20260504034815 | 22 | 74 | 0.0 | 0.0 | 0.00 | 0.18 | 0.18 | 74 | 1018.3 |
| 20260504034319 | 22 | 79 | 0.0 | 0.0 | 0.00 | 0.18 | 0.18 | 74 | 1018.3 |
| 20260504033813 | 22 | 98 | 0.0 | 0.0 | 0.00 | 0.18 | 0.18 | 74 | 1018.3 |
| 20260504033259 | 22 | 150 | 0.0 | 0.0 | 0.00 | 0.18 | 0.18 | 73 | 1018.3 |
| 20260504032753 | 22 | 302 | 0.0 | 0.0 | 0.00 | 0.18 | 0.18 | 74 | 1018.3 |
| 20260504032247 | 22 | 114 | 0.0 | 0.0 | 0.00 | 0.18 | 0.18 | 74 | 1018.4 |
| 20260504031733 | 22 | 105 | 0.0 | 0.0 | 0.00 | 0.20 | 0.18 | 73 | 1018.2 |
| 20260504031710 | 22 | 86 | 0.0 | 0.0 | 0.00 | 0.23 | 0.18 | 73 | 1018.3 |
| 20260504030721 | 23 | 67 | 0.0 | 1.6 | 0.00 | 0.23 | 0.18 | 73 | 1018.2 |
| 20260504030207 | 23 | 91 | 0.0 | 0.0 | 0.00 | 0.23 | 0.18 | 73 | 1018.2 |
| 20260504025701 | 23 | 85 | 0.0 | 0.0 | 0.00 | 0.23 | 0.18 | 73 | 1018.1 |
| 20260504025419 | 23 | 86 | 0.0 | 0.0 | 0.00 | 0.23 | 0.18 | 73 | 1018.1 |
| 20260504024640 | 23 | 115 | 0.0 | 0.0 | 0.00 | 0.23 | 0.18 | 73 | 1018.2 |
| 20260504024135 | 23 | 93 | 0.0 | 0.0 | 0.00 | 0.23 | 0.18 | 73 | 1018.1 |
| 20260504023855 | 23 | 97 | 0.0 | 0.0 | 0.00 | 0.23 | 0.18 | 73 | 1018.1 |
| 20260504023114 | 23 | 94 | 0.0 | 0.0 | 0.00 | 0.25 | 0.18 | 72 | 1017.9 |
| 20260504022608 | 23 | 91 | 0.0 | 0.0 | 0.00 | 0.25 | 0.18 | 72 | 1017.8 |
| 20260504022103 | 22 | 79 | 0.0 | 0.0 | 0.00 | 0.28 | 0.18 | 69 | 1017.7 |
| 20260504021549 | 22 | 340 | 0.0 | 0.0 | 0.00 | 0.28 | 0.18 | 70 | 1017.6 |
| 20260504021043 | 22 | 338 | 0.0 | 0.0 | 0.00 | 0.28 | 0.18 | 69 | 1017.6 |
| 20260504020538 | 22 | 337 | 0.0 | 0.0 | 0.00 | 0.28 | 0.18 | 70 | 1017.5 |
| 20260504020028 | 22 | 9 | 0.0 | 0.0 | 0.00 | 0.28 | 0.18 | 69 | 1017.4 |
| 20260504015521 | 22 | 35 | 0.0 | 0.0 | 0.00 | 0.28 | 0.18 | 69 | 1017.1 |
| 20260504015015 | 22 | 64 | 0.0 | 0.0 | 0.00 | 0.28 | 0.18 | 69 | 1017.3 |
| 20260504014501 | 22 | 64 | 0.0 | 0.0 | 0.00 | 0.28 | 0.18 | 69 | 1017.1 |
| 20260504013955 | 22 | 64 | 0.0 | 0.0 | 0.00 | 0.28 | 0.18 | 69 | 1017.1 |
| 20260504013449 | 22 | 64 | 0.0 | 0.0 | 0.00 | 0.28 | 0.18 | 69 | 1017.1 |
| 20260504012934 | 22 | 64 | 0.0 | 0.0 | 0.00 | 0.28 | 0.18 | 69 | 1017.1 |
| 20260504012429 | 22 | 62 | 0.0 | 0.0 | 0.00 | 0.28 | 0.18 | 69 | 1017.0 |
| 20260504011923 | 22 | 85 | 0.0 | 0.0 | 0.00 | 0.28 | 0.18 | 69 | 1016.8 |
| 20260504011414 | 22 | 86 | 0.0 | 0.0 | 0.00 | 0.28 | 0.18 | 69 | 1016.8 |
| 20260504010900 | 22 | 46 | 0.0 | 0.0 | 0.00 | 0.28 | 0.18 | 69 | 1016.8 |
| 20260504010403 | 22 | 46 | 0.0 | 0.0 | 0.00 | 0.28 | 0.18 | 69 | 1016.7 |
| 20260504005840 | 22 | 304 | 0.0 | 0.0 | 0.00 | 0.28 | 0.18 | 69 | 1016.6 |
| 20260504005553 | 23 | 16 | 0.0 | 0.0 | 0.00 | 0.28 | 0.18 | 70 | 1016.5 |
| 20260504004828 | 22 | 261 | 0.0 | 0.0 | 0.00 | 0.28 | 0.18 | 69 | 1016.5 |
| 20260504004314 | 23 | 202 | 0.0 | 0.0 | 0.00 | 0.28 | 0.18 | 70 | 1016.5 |
| 20260504003808 | 23 | 314 | 0.0 | 0.0 | 0.00 | 0.28 | 0.18 | 69 | 1016.5 |
| 20260504003302 | 23 | 313 | 0.0 | 0.0 | 0.00 | 0.28 | 0.18 | 70 | 1016.6 |
| 20260504002803 | 23 | 97 | 0.0 | 0.0 | 0.00 | 0.28 | 0.18 | 69 | 1016.5 |
| 20260504002303 | 23 | 26 | 0.0 | 0.0 | 0.00 | 0.28 | 0.18 | 69 | 1016.4 |
| 20260504001802 | 23 | 54 | 0.0 | 1.6 | 0.00 | 0.28 | 0.18 | 68 | 1016.3 |
| 20260504001301 | 23 | 318 | 0.0 | 1.6 | 0.00 | 0.28 | 0.18 | 69 | 1016.2 |
| 20260504000859 | 23 | 311 | 0.0 | 0.0 | 0.00 | 0.28 | 0.18 | 68 | 1016.2 |
| 20260503235805 | 23 | 6 | 0.0 | 1.6 | 0.00 | 0.28 | 0.18 | 67 | 1016.2 |
| 20260503235536 | 23 | 341 | 0.0 | 3.2 | 0.00 | 0.28 | 0.18 | 67 | 1016.1 |
| 20260503234805 | 24 | 17 | 1.6 | 9.7 | 0.00 | 0.28 | 0.18 | 66 | 1015.9 |
| 20260503234301 | 24 | 62 | 1.6 | 9.7 | 0.00 | 0.28 | 0.18 | 66 | 1015.9 |
| 20260503233801 | 24 | 349 | 1.6 | 6.4 | 0.00 | 0.28 | 0.18 | 65 | 1016.1 |
| 20260503233302 | 25 | 320 | 1.6 | 6.4 | 0.00 | 0.28 | 0.18 | 65 | 1016.2 |
| 20260503232757 | 25 | 316 | 1.6 | 4.8 | 0.00 | 0.28 | 0.18 | 64 | 1016.0 |
| 20260503232259 | 25 | 320 | 3.2 | 14.5 | 0.00 | 0.28 | 0.18 | 63 | 1016.0 |
| 20260503232038 | 25 | 339 | 3.2 | 14.5 | 0.00 | 0.28 | 0.18 | 63 | 1016.0 |
| 20260503231354 | 25 | 326 | 1.6 | 8.0 | 0.00 | 0.28 | 0.18 | 62 | 1015.9 |
| 20260503230257 | 27 | 336 | 1.6 | 6.4 | 0.00 | 0.28 | 0.18 | 59 | 1015.8 |
| 20260503230238 | 27 | 6 | 1.6 | 9.7 | 0.00 | 0.28 | 0.18 | 59 | 1015.8 |
| 20260503225258 | 27 | 175 | 1.6 | 9.7 | 0.00 | 0.28 | 0.18 | 59 | 1015.8 |
| 20260503224753 | 27 | 332 | 1.6 | 8.0 | 0.00 | 0.28 | 0.18 | 57 | 1015.8 |
| 20260503224251 | 27 | 3 | 1.6 | 8.0 | 0.00 | 0.28 | 0.18 | 56 | 1015.9 |
| 20260503223752 | 27 | 13 | 1.6 | 8.0 | 0.00 | 0.30 | 0.18 | 54 | 1015.8 |
| 20260503223252 | 27 | 332 | 0.0 | 4.8 | 0.00 | 0.30 | 0.18 | 54 | 1015.8 |
| 20260503222753 | 27 | 150 | 0.0 | 3.2 | 0.00 | 0.30 | 0.18 | 57 | 1015.8 |
| 20260503222252 | 27 | 217 | 1.6 | 8.0 | 0.00 | 0.30 | 0.18 | 57 | 1015.8 |
| 20260503221752 | 27 | 80 | 3.2 | 8.0 | 0.00 | 0.33 | 0.18 | 55 | 1015.8 |
| 20260503221255 | 27 | 99 | 3.2 | 8.0 | 0.00 | 0.33 | 0.18 | 56 | 1015.8 |
| 20260503220752 | 28 | 91 | 1.6 | 8.0 | 0.00 | 0.33 | 0.18 | 53 | 1015.9 |
| 20260503220253 | 28 | 170 | 1.6 | 8.0 | 0.00 | 0.33 | 0.18 | 54 | 1016.0 |
| 20260503220018 | 28 | 229 | 1.6 | 8.0 | 0.00 | 0.36 | 0.18 | 57 | 1016.0 |
| 20260503215518 | 28 | 91 | 1.6 | 8.0 | 0.00 | 0.36 | 0.18 | 53 | 1015.9 |
| 20260503214751 | 28 | 24 | 1.6 | 9.7 | 0.00 | 0.38 | 0.18 | 53 | 1015.8 |
| 20260503214251 | 28 | 58 | 1.6 | 9.7 | 0.00 | 0.41 | 0.18 | 52 | 1015.8 |
| 20260503213751 | 27 | 92 | 3.2 | 9.7 | 0.00 | 0.43 | 0.18 | 54 | 1015.9 |
| 20260503213254 | 27 | 84 | 3.2 | 9.7 | 0.00 | 0.46 | 0.18 | 53 | 1016.0 |
| 20260503212751 | 28 | 80 | 1.6 | 6.4 | 0.00 | 0.46 | 0.18 | 54 | 1016.1 |
| 20260503212739 | 28 | 82 | 1.6 | 4.8 | 0.00 | 0.46 | 0.18 | 53 | 1016.0 |
| 20260503211753 | 27 | 307 | 1.6 | 4.8 | 0.00 | 0.48 | 0.18 | 55 | 1016.0 |
| 20260503211249 | 27 | 95 | 1.6 | 4.8 | 0.00 | 0.51 | 0.18 | 57 | 1016.1 |
| 20260503210749 | 26 | 278 | 3.2 | 9.7 | 0.00 | 0.53 | 0.18 | 59 | 1015.9 |
| 20260503210247 | 26 | 323 | 3.2 | 9.7 | 0.00 | 0.53 | 0.18 | 56 | 1016.1 |
| 20260503205747 | 27 | 42 | 1.6 | 9.7 | 0.00 | 0.56 | 0.18 | 55 | 1016.1 |
| 20260503205248 | 27 | 347 | 3.2 | 8.0 | 0.00 | 0.58 | 0.18 | 56 | 1016.2 |
| 20260503204747 | 27 | 78 | 3.2 | 8.0 | 0.00 | 0.61 | 0.18 | 55 | 1016.2 |
| 20260503204249 | 27 | 288 | 3.2 | 6.4 | 0.00 | 0.64 | 0.18 | 58 | 1016.3 |
| 20260503203735 | 27 | 351 | 1.6 | 6.4 | 0.00 | 0.66 | 0.18 | 56 | 1016.4 |
| 20260503203231 | 27 | 103 | 1.6 | 6.4 | 0.00 | 0.66 | 0.18 | 54 | 1016.5 |
| 20260503202723 | 27 | 287 | 1.6 | 6.4 | 0.00 | 0.69 | 0.18 | 53 | 1016.5 |
| 20260503202656 | 27 | 86 | 1.6 | 4.8 | 0.00 | 0.69 | 0.18 | 55 | 1016.5 |
| 20260503201704 | 27 | 135 | 1.6 | 9.7 | 0.00 | 0.69 | 0.18 | 55 | 1016.6 |
| 20260503201202 | 27 | 87 | 1.6 | 9.7 | 0.00 | 0.69 | 0.18 | 57 | 1016.6 |
| 20260503200923 | 27 | 162 | 3.2 | 8.0 | 0.00 | 0.69 | 0.18 | 57 | 1016.8 |
| 20260503200159 | 27 | 328 | 1.6 | 8.0 | 0.00 | 0.71 | 0.18 | 59 | 1016.8 |
| 20260503195700 | 26 | 100 | 3.2 | 9.7 | 0.00 | 0.71 | 0.18 | 59 | 1016.8 |
| 20260503195200 | 26 | 81 | 4.8 | 14.5 | 0.00 | 0.71 | 0.18 | 59 | 1016.9 |
| 20260503194659 | 26 | 129 | 6.4 | 14.5 | 0.00 | 0.71 | 0.18 | 58 | 1016.8 |
| 20260503194201 | 26 | 69 | 3.2 | 11.3 | 0.00 | 0.71 | 0.18 | 57 | 1016.9 |
| 20260503193700 | 26 | 70 | 1.6 | 8.0 | 0.00 | 0.71 | 0.18 | 58 | 1017.0 |
| 20260503193200 | 26 | 55 | 3.2 | 9.7 | 0.00 | 0.71 | 0.18 | 59 | 1017.0 |
| 20260503192659 | 26 | 345 | 3.2 | 9.7 | 0.00 | 0.71 | 0.18 | 59 | 1017.0 |
| 20260503192427 | 26 | 63 | 4.8 | 14.5 | 0.00 | 0.71 | 0.18 | 58 | 1017.2 |
| 20260503191704 | 25 | 55 | 6.4 | 16.1 | 0.00 | 0.86 | 0.18 | 61 | 1017.3 |
| 20260503191158 | 25 | 49 | 4.8 | 16.1 | 0.00 | 1.78 | 0.18 | 60 | 1017.3 |
| 20260503190644 | 26 | 72 | 3.2 | 11.3 | 0.00 | 2.51 | 0.18 | 59 | 1017.5 |
| 20260503190137 | 26 | 51 | 3.2 | 11.3 | 0.00 | 2.51 | 0.18 | 59 | 1017.5 |
| 20260503185902 | 26 | 335 | 3.2 | 14.5 | 0.00 | 2.51 | 0.18 | 60 | 1017.8 |
| 20260503185116 | 26 | 73 | 3.2 | 14.5 | 0.00 | 2.51 | 0.18 | 61 | 1018.0 |
| 20260503184609 | 26 | 68 | 1.6 | 6.4 | 0.00 | 2.51 | 0.18 | 61 | 1018.1 |
| 20260503184103 | 26 | 62 | 1.6 | 6.4 | 0.00 | 2.51 | 0.18 | 60 | 1018.3 |
| 20260503183550 | 25 | 48 | 1.6 | 9.7 | 0.00 | 2.51 | 0.18 | 62 | 1018.3 |
| 20260503183049 | 25 | 41 | 3.2 | 9.7 | 0.00 | 2.51 | 0.18 | 63 | 1018.4 |
| 20260503182545 | 25 | 82 | 3.2 | 9.7 | 0.00 | 2.51 | 0.18 | 64 | 1018.4 |
| 20260503182047 | 25 | 84 | 1.6 | 9.7 | 0.00 | 2.51 | 0.18 | 64 | 1018.5 |
| 20260503181546 | 25 | 80 | 3.2 | 12.9 | 0.00 | 2.51 | 0.18 | 65 | 1018.5 |
| 20260503181045 | 24 | 101 | 3.2 | 12.9 | 0.00 | 2.51 | 0.18 | 65 | 1018.5 |
| 20260503180545 | 25 | 95 | 3.2 | 12.9 | 0.00 | 2.51 | 0.18 | 66 | 1018.7 |
| 20260503180316 | 25 | 50 | 4.8 | 12.9 | 0.00 | 2.51 | 0.18 | 66 | 1018.7 |
| 20260503175548 | 25 | 74 | 4.8 | 12.9 | 0.00 | 2.51 | 0.18 | 65 | 1018.7 |
| 20260503175046 | 25 | 81 | 4.8 | 16.1 | 0.00 | 2.51 | 0.18 | 65 | 1018.7 |
| 20260503174545 | 24 | 79 | 4.8 | 16.1 | 0.00 | 2.51 | 0.18 | 66 | 1018.7 |
| 20260503174304 | 24 | 81 | 3.2 | 11.3 | 0.00 | 2.51 | 0.18 | 67 | 1018.7 |
| 20260503173550 | 24 | 93 | 4.8 | 12.9 | 0.00 | 2.51 | 0.18 | 65 | 1018.9 |
| 20260503173043 | 24 | 351 | 4.8 | 17.7 | 0.00 | 2.51 | 0.18 | 68 | 1018.9 |
| 20260503172543 | 24 | 64 | 4.8 | 17.7 | 0.00 | 2.51 | 0.18 | 67 | 1018.9 |
| 20260503172028 | 24 | 76 | 4.8 | 14.5 | 0.00 | 2.51 | 0.18 | 65 | 1019.0 |
| 20260503171522 | 24 | 75 | 4.8 | 14.5 | 0.00 | 2.51 | 0.18 | 67 | 1019.1 |
| 20260503171016 | 24 | 91 | 4.8 | 12.9 | 0.00 | 2.51 | 0.18 | 66 | 1019.2 |
| 20260503170503 | 23 | 73 | 6.4 | 16.1 | 0.00 | 2.51 | 0.18 | 66 | 1019.2 |
| 20260503160140 | 22 | 78 | 0.0 | 0.0 | 0.00 | 2.51 | 0.18 | 70 | 1019.4 |
| 20260503150856 | 21 | 22 | 0.0 | 6.4 | 0.00 | 2.51 | 0.18 | 73 | 1019.1 |
| 20260503150357 | 21 | 101 | 0.0 | 0.0 | 0.00 | 2.51 | 0.18 | 72 | 1019.3 |
| 20260503150124 | 21 | 107 | 0.0 | 0.0 | 0.00 | 2.51 | 0.18 | 73 | 1019.2 |
| 20260503131337 | 18 | 92 | 0.0 | 0.0 | 0.00 | 2.51 | 0.18 | 85 | 1018.5 |
| 20260503130838 | 18 | 43 | 0.0 | 0.0 | 0.00 | 2.51 | 0.18 | 85 | 1018.5 |
| 20260503130336 | 18 | 6 | 0.0 | 0.0 | 0.00 | 2.51 | 0.18 | 85 | 1018.4 |
| 20260503110816 | 18 | 42 | 0.0 | 0.0 | 0.00 | 2.51 | 0.18 | 88 | 1016.8 |
| 20260503110315 | 18 | 27 | 0.0 | 0.0 | 0.00 | 2.51 | 0.18 | 88 | 1016.8 |
| 20260503100227 | 18 | 41 | 0.0 | 0.0 | 0.00 | 2.51 | 0.18 | 88 | 1016.6 |